�N����,����,�~����,�C��,���x,�C��,����,���ϕ���,�ő�u�ԕ���,�ő厞����,���˗�,�I�_���x,�n�����x,�ő啗���N��,DTYPE
"17/04/17","00:10",0.0,12.8,89.3,1010.9,307.1,1.3,2.1,334.9,0.00,11.1,14.4,"00:01:14",1
"17/04/17","00:20",0.0,13.0,90.1,1011.2,293.4,1.6,2.7,310.1,0.00,11.5,14.5,"00:18:24",1
"17/04/17","00:30",0.0,13.2,89.5,1010.9,311.3,1.1,2.2,334.4,0.00,11.6,14.5,"00:20:48",1
"17/04/17","00:40",0.0,13.2,89.8,1010.9,327.9,1.0,1.6,316.3,0.00,11.6,14.4,"00:32:48",1
"17/04/17","00:50",0.0,13.1,89.6,1011.2,316.9,1.5,1.9,315.8,0.00,11.5,14.3,"00:40:08",1
"17/04/17","01:00",0.0,12.8,90.0,1010.9,317.5,1.2,1.6,301.5,0.00,11.2,14.1,"00:52:16",1
"17/04/17","01:10",0.0,12.5,90.1,1010.9,310.8,1.0,1.4,320.3,0.00,11.0,14.0,"01:04:24",1
"17/04/17","01:20",0.0,12.4,91.0,1010.7,312.8,1.3,2.0,320.6,0.00,11.0,14.1,"01:16:00",1
"17/04/17","01:30",0.0,12.8,91.6,1010.2,299.3,1.5,2.1,327.1,0.00,11.5,14.0,"01:27:30",1
"17/04/17","01:40",0.0,13.0,90.8,1010.2,299.3,1.2,1.8,324.8,0.00,11.6,13.9,"01:35:52",1
"17/04/17","01:50",0.0,12.8,90.7,1010.2,316.3,1.1,1.8,320.0,0.00,11.4,13.9,"01:45:12",1
"17/04/17","02:00",0.0,12.5,91.0,1010.0,326.0,1.5,2.2,321.4,0.00,11.1,13.8,"01:51:04",1
"17/04/17","02:10",0.0,12.3,91.9,1010.2,321.6,1.3,1.6,323.3,0.00,11.1,13.8,"02:00:58",1
"17/04/17","02:20",0.0,12.3,92.6,1009.7,312.1,1.3,2.0,323.0,0.00,11.2,13.8,"02:16:56",1
"17/04/17","02:30",0.0,12.5,93.0,1010.0,279.4,1.3,2.7,300.3,0.00,11.4,14.1,"02:21:28",1
"17/04/17","02:40",0.0,12.6,92.6,1010.0,291.3,1.3,2.1,317.7,0.00,11.5,13.9,"02:35:28",1
"17/04/17","02:50",0.0,12.7,92.4,1009.7,292.4,1.1,2.0,304.3,0.00,11.5,13.9,"02:40:32",1
"17/04/17","03:00",0.0,12.9,92.4,1009.3,324.0,1.2,1.8,319.4,0.00,11.7,13.7,"02:50:02",1
"17/04/17","03:10",0.0,12.7,92.5,1009.5,313.7,1.2,1.9,321.7,0.00,11.6,13.8,"03:00:08",1
"17/04/17","03:20",0.0,12.7,92.5,1009.5,288.2,1.2,1.6,307.5,0.00,11.6,13.7,"03:17:22",1
"17/04/17","03:30",0.0,12.7,92.7,1009.3,314.6,0.8,1.7,304.3,0.00,11.6,13.6,"03:20:16",1
"17/04/17","03:40",0.0,12.5,92.4,1009.0,293.4,0.8,1.6,323.3,0.00,11.3,13.7,"03:39:28",1
"17/04/17","03:50",0.0,12.3,92.7,1009.0,313.8,1.2,1.8,331.6,0.00,11.2,13.5,"03:49:46",1
"17/04/17","04:00",0.0,12.2,93.6,1009.0,334.1,1.6,2.2,337.4,0.00,11.2,13.7,"03:51:40",1
"17/04/17","04:10",0.0,12.2,94.4,1009.0,294.2,1.2,1.9,318.7,0.00,11.4,13.5,"04:03:44",1
"17/04/17","04:20",0.0,12.3,94.5,1009.3,295.2,1.2,2.0,330.1,0.00,11.5,13.5,"04:11:28",1
"17/04/17","04:30",0.0,12.4,94.5,1009.3,306.7,1.2,1.9,336.5,0.00,11.6,13.6,"04:24:50",1
"17/04/17","04:40",0.0,12.1,94.0,1009.0,314.6,1.3,2.0,328.3,0.00,11.2,13.5,"04:36:34",1
"17/04/17","04:50",0.0,11.9,94.9,1008.8,320.9,1.6,1.8,333.8,0.00,11.1,13.5,"04:40:08",1
"17/04/17","05:00",0.0,12.2,95.5,1008.6,300.3,1.0,1.3,323.0,0.00,11.5,13.5,"04:50:40",1
"17/04/17","05:10",0.0,12.6,95.7,1009.0,308.1,1.1,1.6,324.1,0.00,12.0,13.4,"05:04:08",1
"17/04/17","05:20",0.0,12.7,95.2,1009.0,292.0,0.3,0.9,307.7,0.00,12.0,13.5,"05:10:08",1
"17/04/17","05:30",0.0,12.6,95.3,1009.0,302.5,0.7,1.1,315.4,0.00,11.9,13.6,"05:25:52",1
"17/04/17","05:40",0.0,12.4,95.2,1009.5,322.4,1.3,1.7,333.0,0.00,11.7,13.3,"05:34:58",1
"17/04/17","05:50",0.0,12.5,95.7,1009.5,328.5,1.5,1.7,326.8,0.00,11.9,13.4,"05:47:26",1
"17/04/17","06:00",0.0,12.5,95.6,1009.5,311.9,1.1,1.6,339.1,0.00,11.9,13.5,"05:51:04",1
"17/04/17","06:10",0.0,12.5,95.7,1009.5,291.6,0.7,1.0,307.8,0.00,11.9,13.2,"06:00:32",1
"17/04/17","06:20",0.0,12.5,95.7,1009.0,327.2,1.1,1.8,333.6,0.00,11.9,13.4,"06:16:16",1
"17/04/17","06:30",0.0,12.6,95.9,1009.3,301.7,0.8,1.4,340.9,0.01,12.0,13.5,"06:20:40",1
"17/04/17","06:40",0.0,12.9,96.1,1009.3,289.7,0.6,0.9,285.5,0.03,12.3,13.5,"06:32:32",1
"17/04/17","06:50",0.0,13.5,96.3,1009.3,73.1,0.5,0.8,108.7,0.04,13.0,13.3,"06:44:40",1
"17/04/17","07:00",0.0,14.3,95.7,1008.8,308.4,1.1,1.7,319.6,0.06,13.7,13.4,"06:57:12",1
"17/04/17","07:10",0.0,14.6,95.1,1009.0,313.4,0.7,1.8,326.9,0.06,13.9,13.5,"07:01:36",1
"17/04/17","07:20",0.0,15.0,94.8,1009.0,250.8,0.8,1.4,246.7,0.06,14.2,13.6,"07:15:12",1
"17/04/17","07:30",0.0,15.4,93.7,1008.8,9.2,1.0,2.4,353.1,0.08,14.4,13.5,"07:26:48",1
"17/04/17","07:40",0.0,15.9,90.6,1009.0,323.5,1.5,2.0,326.6,0.10,14.4,13.7,"07:33:12",1
"17/04/17","07:50",0.0,16.7,88.6,1009.3,258.2,1.0,1.4,241.4,0.12,14.8,13.7,"07:47:52",1
"17/04/17","08:00",0.0,17.1,87.0,1008.6,250.5,0.7,1.3,244.5,0.12,15.0,13.7,"07:56:00",1
"17/04/17","08:10",0.0,17.7,85.4,1008.6,264.0,0.5,0.9,254.0,0.12,15.3,13.7,"08:03:28",1
"17/04/17","08:20",0.0,18.0,83.8,1008.8,311.0,1.0,1.7,326.0,0.11,15.3,13.9,"08:18:08",1
"17/04/17","08:30",0.0,18.0,83.8,1008.3,93.9,0.3,0.8,297.4,0.11,15.3,14.1,"08:20:08",1
"17/04/17","08:40",0.0,18.6,82.2,1007.8,137.7,0.3,1.1,122.3,0.15,15.5,14.0,"08:37:32",1
"17/04/17","08:50",0.0,19.3,80.0,1007.8,277.6,0.2,0.6,303.1,0.17,15.8,14.2,"08:42:58",1
"17/04/17","09:00",0.0,19.1,80.4,1007.6,183.8,0.8,1.6,141.0,0.12,15.7,14.2,"08:52:08",1
"17/04/17","09:10",0.0,19.1,79.1,1007.4,165.6,0.7,1.9,122.8,0.13,15.4,14.4,"09:06:40",1
"17/04/17","09:20",0.0,19.2,79.5,1007.1,178.3,0.6,1.3,164.4,0.13,15.6,14.3,"09:18:16",1
"17/04/17","09:30",0.0,19.6,78.2,1006.9,163.7,0.5,1.2,118.1,0.17,15.7,14.5,"09:25:20",1
"17/04/17","09:40",0.0,20.5,72.8,1006.9,286.6,0.6,1.9,188.8,0.30,15.5,14.6,"09:38:40",1
"17/04/17","09:50",0.0,20.8,70.9,1006.4,275.7,0.7,1.8,211.8,0.26,15.4,14.7,"09:42:24",1
"17/04/17","10:00",0.0,20.8,71.3,1006.2,238.7,0.6,2.1,274.0,0.28,15.5,14.8,"09:50:02",1
"17/04/17","10:10",0.0,20.9,68.7,1006.2,281.6,1.2,2.8,248.2,0.24,15.0,14.7,"10:03:04",1
"17/04/17","10:20",0.0,21.3,69.2,1006.0,198.4,0.7,1.7,191.3,0.23,15.5,15.0,"10:17:36",1
"17/04/17","10:30",0.0,21.5,66.7,1006.0,243.7,0.8,2.7,222.4,0.24,15.1,15.1,"10:27:36",1
"17/04/17","10:40",0.0,21.7,62.8,1005.2,190.8,1.3,2.9,138.0,0.23,14.3,15.3,"10:38:40",1
"17/04/17","10:50",0.0,21.8,60.5,1005.0,147.8,1.7,3.5,102.5,0.21,13.9,15.2,"10:48:08",1
"17/04/17","11:00",0.0,21.5,62.3,1004.8,112.8,1.8,3.7,122.2,0.13,14.0,15.5,"10:51:36",1
"17/04/17","11:10",0.0,21.8,62.2,1004.5,130.3,1.7,4.5,116.0,0.20,14.3,15.4,"11:02:00",1
"17/04/17","11:20",0.0,22.1,59.9,1004.3,109.0,1.8,3.3,113.0,0.24,14.0,15.6,"11:19:44",1
"17/04/17","11:30",0.0,22.0,61.0,1004.3,98.9,1.5,2.9,45.6,0.16,14.2,15.4,"11:26:40",1
"17/04/17","11:40",0.0,21.7,61.7,1003.8,120.7,1.8,4.2,108.2,0.12,14.1,15.6,"11:36:24",1
"17/04/17","11:50",0.0,22.2,61.0,1003.6,122.2,2.2,4.0,117.2,0.19,14.4,15.7,"11:42:56",1
"17/04/17","12:00",0.0,21.9,60.6,1003.6,121.2,2.2,4.3,124.6,0.08,14.0,15.8,"11:52:48",1
"17/04/17","12:10",0.0,21.7,61.9,1003.4,115.7,2.3,5.4,123.8,0.08,14.1,15.9,"12:07:12",1
"17/04/17","12:20",0.0,20.8,66.7,1003.4,122.9,3.4,7.5,127.5,0.07,14.4,15.7,"12:18:00",1
"17/04/17","12:30",0.2,19.7,73.6,1002.9,139.0,2.1,4.9,149.6,0.07,14.9,15.6,"12:22:24",1
"17/04/17","12:40",0.0,19.4,76.0,1002.6,119.0,1.5,4.2,123.4,0.07,15.1,15.6,"12:37:36",1
"17/04/17","12:50",0.2,19.3,77.3,1002.6,133.8,1.8,3.5,109.5,0.07,15.3,15.9,"12:48:32",1
"17/04/17","13:00",0.2,18.8,79.8,1002.4,108.3,1.8,3.7,125.2,0.06,15.3,15.8,"12:50:16",1
"17/04/17","13:10",0.0,18.6,82.6,1002.2,77.8,0.8,2.5,103.9,0.04,15.6,15.7,"13:03:04",1
"17/04/17","13:20",0.2,18.4,83.3,1002.2,351.6,0.6,1.3,359.8,0.04,15.6,15.7,"13:10:08",1
"17/04/17","13:30",0.0,18.3,85.0,1002.2,277.0,0.6,1.6,308.3,0.03,15.8,15.8,"13:23:28",1
"17/04/17","13:40",0.0,18.3,86.1,1001.9,336.4,0.3,1.4,343.0,0.04,16.0,15.7,"13:35:36",1
"17/04/17","13:50",0.0,18.1,86.8,1001.7,304.2,1.2,1.9,345.3,0.03,15.9,15.8,"13:42:56",1
"17/04/17","14:00",0.2,18.0,87.8,1001.5,318.6,1.2,2.1,322.8,0.05,16.0,15.8,"13:52:32",1
"17/04/17","14:10",0.2,18.1,88.2,1001.2,343.2,0.2,0.8,329.0,0.06,16.2,15.9,"14:04:56",1
"17/04/17","14:20",0.4,18.1,88.4,1001.0,325.4,0.5,0.9,301.7,0.03,16.2,15.6,"14:12:56",1
"17/04/17","14:30",0.2,18.1,88.5,1001.2,10.2,0.6,1.2,43.9,0.03,16.2,15.6,"14:26:56",1
"17/04/17","14:40",0.4,17.9,88.5,1000.8,9.0,0.8,1.3,43.7,0.03,16.0,15.7,"14:31:20",1
"17/04/17","14:50",1.0,17.8,89.0,1000.8,346.1,0.6,1.4,353.6,0.02,16.0,15.8,"14:41:04",1
"17/04/17","15:00",1.0,17.7,89.7,1000.3,309.4,1.1,1.7,318.6,0.01,16.0,15.7,"14:52:08",1
"17/04/17","15:10",0.8,17.6,90.4,1000.5,329.1,1.1,1.9,306.7,0.01,16.1,15.5,"15:03:28",1
"17/04/17","15:20",0.8,17.5,90.8,1000.0,326.0,0.8,1.9,356.6,0.01,16.0,15.7,"15:16:40",1
"17/04/17","15:30",0.8,17.4,91.5,999.8,298.7,1.0,1.9,337.4,0.00,16.0,15.6,"15:20:16",1
"17/04/17","15:40",1.0,17.4,92.3,999.8,289.7,0.6,1.1,122.0,0.01,16.2,15.8,"15:38:56",1
"17/04/17","15:50",1.2,17.4,92.8,999.8,115.2,1.0,2.1,115.6,0.00,16.3,15.6,"15:41:20",1
"17/04/17","16:00",1.2,17.4,93.2,999.6,112.8,1.2,2.4,113.9,0.01,16.3,15.6,"15:58:24",1
"17/04/17","16:10",0.8,17.4,93.8,999.8,135.3,1.2,2.9,116.4,0.00,16.4,15.7,"16:00:32",1
"17/04/17","16:20",0.8,17.3,94.0,999.1,130.9,1.8,3.4,125.2,0.00,16.4,15.7,"16:12:16",1
"17/04/17","16:30",0.4,17.4,94.2,998.6,133.6,0.8,2.6,127.2,0.00,16.5,15.5,"16:21:04",1
"17/04/17","16:40",0.6,17.4,94.4,998.6,130.4,1.2,2.5,130.0,0.00,16.5,15.7,"16:39:28",1
"17/04/17","16:50",0.2,17.4,94.6,998.6,117.2,1.3,2.7,121.6,0.00,16.6,15.7,"16:48:00",1
"17/04/17","17:00",0.4,17.5,94.7,998.6,127.7,1.2,2.5,127.7,0.00,16.7,15.6,"16:52:56",1
"17/04/17","17:10",0.2,17.5,94.8,998.6,119.9,1.2,2.6,124.9,0.00,16.7,15.6,"17:04:40",1
"17/04/17","17:20",0.2,17.5,94.8,998.4,109.7,0.8,1.8,120.1,0.00,16.7,15.7,"17:12:08",1
"17/04/17","17:30",0.2,17.4,94.9,998.2,110.0,0.7,1.7,124.0,0.00,16.6,15.4,"17:23:12",1
"17/04/17","17:40",0.8,17.4,95.1,997.9,136.8,0.6,1.4,133.4,0.00,16.6,15.5,"17:33:04",1
"17/04/17","17:50",1.2,17.5,95.3,997.9,190.0,0.6,1.2,117.3,0.00,16.8,15.7,"17:49:12",1
"17/04/17","18:00",1.2,17.4,95.4,998.2,156.4,1.0,2.2,182.5,0.00,16.7,15.6,"17:58:24",1
"17/04/17","18:10",0.8,17.4,95.5,997.9,198.9,1.3,2.0,204.3,0.00,16.7,15.7,"18:00:40",1
"17/04/17","18:20",1.4,17.2,95.7,997.7,163.3,1.3,2.7,126.9,0.00,16.5,15.6,"18:19:12",1
"17/04/17","18:30",0.4,17.3,95.8,997.7,138.9,1.3,2.8,83.8,0.00,16.7,15.7,"18:24:56",1
"17/04/17","18:40",0.4,17.2,95.6,997.0,126.3,1.3,2.6,134.8,0.00,16.5,15.7,"18:38:24",1
"17/04/17","18:50",0.4,17.1,95.6,997.2,127.1,1.6,3.2,130.7,0.00,16.4,15.5,"18:43:12",1
"17/04/17","19:00",1.0,17.0,95.6,997.2,153.1,0.6,1.9,124.0,0.00,16.3,15.7,"18:50:08",1
"17/04/17","19:10",0.8,16.6,95.5,996.7,110.4,1.8,3.9,120.0,0.00,15.9,15.5,"19:07:04",1
"17/04/17","19:20",0.6,16.4,95.5,996.5,111.3,1.2,2.7,108.8,0.00,15.7,15.4,"19:13:04",1
"17/04/17","19:30",0.8,16.2,95.5,996.3,108.5,1.5,3.1,97.2,0.00,15.5,15.6,"19:20:48",1
"17/04/17","19:40",0.6,16.2,95.7,995.8,115.7,1.3,2.6,122.7,0.00,15.6,15.5,"19:33:36",1
"17/04/17","19:50",1.2,16.1,95.7,995.1,114.2,1.3,2.8,122.5,0.00,15.5,15.7,"19:44:32",1
"17/04/17","20:00",1.8,16.0,95.7,995.3,110.2,0.8,2.0,113.0,0.00,15.4,15.5,"19:54:32",1
"17/04/17","20:10",1.0,16.0,96.0,995.3,147.8,1.2,2.8,120.7,0.00,15.4,15.3,"20:03:20",1
"17/04/17","20:20",1.8,16.0,96.1,995.1,141.1,1.0,2.1,114.4,0.00,15.4,15.4,"20:16:00",1
"17/04/17","20:30",1.4,16.0,96.1,995.1,142.1,1.0,1.9,117.1,0.00,15.4,15.4,"20:22:56",1
"17/04/17","20:40",1.4,15.9,96.2,994.6,150.3,0.8,1.9,146.0,0.00,15.3,15.4,"20:39:04",1
"17/04/17","20:50",1.6,15.9,96.4,994.6,150.1,1.0,2.6,122.6,0.00,15.4,15.3,"20:45:12",1
"17/04/17","21:00",1.2,16.0,96.4,994.1,163.0,0.8,2.1,193.5,0.00,15.5,15.2,"20:51:20",1
"17/04/17","21:10",1.4,16.0,96.5,994.1,215.9,0.8,1.9,240.0,0.00,15.5,15.1,"21:08:08",1
"17/04/17","21:20",1.4,16.0,96.6,994.1,233.2,1.0,1.6,230.3,0.00,15.5,15.3,"21:19:12",1
"17/04/17","21:30",1.6,16.0,96.6,993.9,230.4,0.8,1.6,227.7,0.00,15.5,15.4,"21:26:08",1
"17/04/17","21:40",1.4,15.9,96.7,993.4,252.0,0.5,1.2,268.4,0.00,15.4,15.3,"21:34:58",1
"17/04/17","21:50",1.4,16.0,96.8,993.2,312.8,0.7,1.2,335.6,0.00,15.5,15.2,"21:44:48",1
"17/04/17","22:00",1.4,15.9,96.9,993.2,177.9,0.6,1.4,197.4,0.00,15.4,15.3,"21:56:16",1
"17/04/17","22:10",1.6,16.0,96.9,992.5,295.5,0.7,2.8,310.7,0.00,15.5,15.2,"22:09:04",1
"17/04/17","22:20",1.0,15.9,97.0,992.7,341.0,1.2,2.6,340.1,0.00,15.5,15.3,"22:19:28",1
"17/04/17","22:30",2.0,15.9,97.0,993.0,333.9,1.8,2.6,312.2,0.00,15.5,15.0,"22:28:32",1
"17/04/17","22:40",2.0,16.0,97.1,992.0,305.4,1.6,3.5,338.2,0.00,15.6,15.2,"22:30:24",1
"17/04/17","22:50",1.2,16.1,97.2,992.0,7.5,1.1,1.9,322.7,0.00,15.7,15.2,"22:42:40",1
"17/04/17","23:00",0.8,16.2,97.2,991.8,60.5,0.8,1.8,103.3,0.00,15.8,15.2,"22:51:20",1
"17/04/17","23:10",1.2,16.2,97.1,991.5,78.4,0.6,1.6,341.1,0.00,15.8,15.3,"23:00:24",1
"17/04/17","23:20",1.2,16.3,97.2,991.3,99.9,0.6,1.1,28.7,0.00,15.9,15.2,"23:17:54",1
"17/04/17","23:30",1.6,16.4,97.2,991.5,116.6,0.8,1.7,122.0,0.00,16.0,15.3,"23:23:52",1
"17/04/17","23:40",3.2,16.4,97.2,991.1,103.5,1.1,2.5,41.2,0.00,16.0,15.2,"23:34:08",1
"17/04/17","23:50",2.2,16.4,97.2,991.1,88.1,0.8,2.2,58.5,0.00,16.0,15.1,"23:44:32",1
"17/04/17","24:00",1.6,16.7,97.3,990.8,143.3,1.7,5.2,115.4,0.00,16.3,15.2,"23:58:48",1
